Weather History for KPSP - March, 2013

Change the Weather History Date:

Monday, March 25, 2013

  Actual Average Record
Temperature  
Mean Temperature 71 °F 67 °F  
Max Temperature 85 °F 80 °F 97 °F (1988)
Min Temperature 57 °F 54 °F 35 °F (1942)
Degree Days  
Heating Degree Days 0 2  
Month to date heating degree days 22 66  
Since 1 July heating degree days 760 844  
Cooling Degree Days 6 4  
Month to date cooling degree days 162 67  
Year to date cooling degree days 174 94  
Growing Degree Days 20 (Base 50)    
Moisture  
Dew Point 24 °F    
Average Humidity 24    
Maximum Humidity 39    
Minimum Humidity 8    
Precipitation  
Precipitation 0.00 in 0.01 in 1.10 in (1906)
Month to date precipitation 0.04 0.58  
Year to date precipitation 0.97 2.61  
Since 1 July precipitation 2.19  
Snow  
Snow 0.00 in - - ()
Month to date snowfall 0.0  
Year to date snowfall 0.0  
Since 1 July snowfall 0.0  
Snow Depth 0.00 in    
Sea Level Pressure  
Sea Level Pressure 29.89 in    
Wind  
Wind Speed 6 mph (NNE)    
Max Wind Speed 13 mph    
Max Gust Speed 17 mph    
Visibility 10 miles    
Events      
T = Trace of Precipitation, MM = Missing Value Source: NWS Daily Summary

Daily Weather History Graph

Daily Weather History Graph

Search for Another Location

Airport or City:

Trip Planner

Search our weather history database for the weather conditions in past years. The results will help you decide how hot, cold, wet, or windy it might be!

Date:

Astronomy

Mar. 25, 2013 Rise Set
Actual Time 6:42 AM PDT 7:01 PM PDT
Civil Twilight 6:17 AM PDT 7:26 PM PDT
Nautical Twilight 5:48 AM PDT 7:55 PM PDT
Astronomical Twilight 5:18 AM PDT 8:25 PM PDT
Moon 5:40 PM PDT (3/25) 5:24 AM PDT (3/25)
Length of Visible Light 13h 09m
Length of Day
12h 19m
Waxing Gibbous, 97% of the Moon is Illuminated
Mar 25
Waxing Gibbous
Mar 27
Full
Apr 2
Last Quarter
Apr 10
New
Apr 18
First Quarter

Hourly Weather History & Observations

Time (PDT) Temp. Dew Point Humidity Pressure Visibility Wind Dir Wind Speed Gust Speed Precip Events Conditions
12:53 AM 64.0 °F 27.0 °F 25% 29.91 in 10.0 mi NNW 9.2 mph - N/A   Clear
1:53 AM 57.0 °F 32.0 °F 39% 29.91 in 10.0 mi Calm Calm - N/A   Clear
2:53 AM 62.1 °F 30.9 °F 31% 29.90 in 10.0 mi NW 3.5 mph - N/A   Clear
3:53 AM 59.0 °F 28.9 °F 32% 29.90 in 10.0 mi North 6.9 mph - N/A   Clear
4:53 AM 57.9 °F 28.9 °F 33% 29.90 in 10.0 mi NW 8.1 mph - N/A   Clear
5:53 AM 57.9 °F 28.0 °F 32% 29.91 in 10.0 mi NNW 6.9 mph - N/A   Clear
6:53 AM 60.1 °F 26.1 °F 27% 29.92 in 10.0 mi NNW 10.4 mph - N/A   Clear
7:53 AM 63.0 °F 25.0 °F 24% 29.94 in 10.0 mi NW 8.1 mph - N/A   Clear
8:53 AM 69.1 °F 25.0 °F 19% 29.94 in 10.0 mi Calm Calm - N/A   Clear
9:53 AM 75.0 °F 21.9 °F 14% 29.94 in 10.0 mi Calm Calm - N/A   Clear
10:53 AM 80.1 °F 15.1 °F 9% 29.94 in 10.0 mi Calm Calm - N/A   Clear
11:53 AM 81.0 °F 15.1 °F 8% 29.93 in 10.0 mi Variable 5.8 mph - N/A   Clear
12:53 PM 82.9 °F 16.0 °F 8% 29.91 in 10.0 mi ENE 9.2 mph - N/A   Clear
1:53 PM 82.9 °F 19.0 °F 9% 29.88 in 10.0 mi ESE 9.2 mph - N/A   Clear
2:53 PM 84.0 °F 19.0 °F 9% 29.86 in 10.0 mi SE 9.2 mph - N/A   Clear
3:53 PM 84.0 °F 21.9 °F 10% 29.84 in 10.0 mi East 10.4 mph - N/A   Mostly Cloudy
4:53 PM 84.0 °F 21.0 °F 10% 29.82 in 10.0 mi ESE 11.5 mph - N/A   Clear
5:53 PM 82.9 °F 19.9 °F 10% 29.82 in 10.0 mi ESE 11.5 mph - N/A   Clear
6:53 PM 81.0 °F 19.9 °F 10% 29.83 in 10.0 mi East 6.9 mph - N/A   Clear
7:53 PM 77.0 °F 21.9 °F 13% 29.83 in 10.0 mi Calm Calm - N/A   Clear
8:53 PM 75.9 °F 21.9 °F 13% 29.85 in 10.0 mi Calm Calm - N/A   Mostly Cloudy
9:53 PM 73.9 °F 24.1 °F 16% 29.87 in 10.0 mi Calm Calm - N/A   Mostly Cloudy
10:53 PM 73.0 °F 37.0 °F 27% 29.87 in 10.0 mi WNW 4.6 mph - N/A   Clear
11:53 PM 69.1 °F 36.0 °F 30% 29.86 in 10.0 mi Calm Calm - N/A   Clear